Starlink 6375

operational
NORAD ID: 57342 Int'l Des: 2023-099 Owner: SPXS Country: US Constellation: starlink
LEOCIRCULAR

Über Starlink 6375

Beschreibung wird geladen...

Live-Position

3D-Globus wird geladen...

Nächste Überflüge

Höhenverlauf

Altitude vs Time

uPlot chart will show altitude changes over time

Zweizeiliger Elementsatz

1 57342U 23099Q 26033.54577203 .00009166 00000-0 69227-3 0 9992
2 57342 42.9997 79.6286 0000767 303.8720 56.2049 15.02561362140837
Epoch: 2. Feb. 2026 • Age: 14 hours

Aktueller Status

Höhe 570.7 km
Geschwindigkeit 7.58 km/s
Subsatellitenpunkt -40.01°S, 142.16°E
Startdatum 16. Juli 2023
Alter 2.5 years
Typ internet

Technische Details

Klassifizierung Payload
Masse 305.00 kg
Trockenmasse 290.00 kg
Gesamtmasse 305.00 kg
Länge 0.20 m
Durchmesser 2.80 m
Spannweite 9.00 m
Form Box + pan
Hersteller SPXS
Bus-Typ Starlink
Phasenstatus In Orbit
Besitzer/Staat SPXS/US

Große Konstellationen

Loading constellations...